| time (UTC) | temp F | wind direction | speed knots | gust knots | rain 1hr in | rain 24hr in | rain mn in | humidity % | barometer mb |
| 20260503184534 | 76 | 324 | 2.6 | 7.8 | 0.00 | 0.00 | 0.00 | 49 | 1014.1 |
| 20260503183030 | 75 | 300 | 2.6 | 10.4 | 0.00 | 0.00 | 0.00 | 49 | 1014.2 |
| 20260503180032 | 74 | 312 | 0.9 | 3.5 | 0.00 | 0.00 | 0.00 | 51 | 1014.5 |
| 20260503173034 | 72 | 360 | 0.9 | 3.5 | 0.00 | 0.00 | 0.00 | 57 | 1014.7 |
| 20260503160107 | 62 | 111 | 0.0 | 1.7 | 0.00 | 0.00 | 0.00 | 82 | 1014.8 |
| 20260503120142 | 46 | 157 | 2.6 | 3.5 | 0.00 | 0.00 | 0.00 | 95 | 1013.2 |
| 20260503081534 | 51 | 202 | 0.9 | 3.5 | 0.00 | 0.00 | 0.00 | 93 | 1013.4 |
| 20260503071532 | 52 | 135 | 0.9 | 2.6 | 0.00 | 0.00 | 0.00 | 92 | 1013.5 |
| 20260503051641 | 57 | 295 | 0.0 | 2.6 | 0.00 | 0.00 | 0.00 | 83 | 1013.6 |
| 20260503050029 | 59 | 22 | 0.0 | 0.9 | 0.00 | 0.00 | 0.00 | 83 | 1013.5 |
| 20260503044531 | 59 | 22 | 2.6 | 4.3 | 0.00 | 0.00 | 0.00 | 83 | 1013.4 |
| 20260503043107 | 58 | 29 | 2.6 | 4.3 | 0.00 | 0.00 | 0.00 | 84 | 1013.2 |
| 20260503041531 | 57 | 22 | 2.6 | 4.3 | 0.00 | 0.00 | 0.00 | 82 | 1013.1 |
| 20260503040042 | 58 | 42 | 0.0 | 4.3 | 0.00 | 0.00 | 0.00 | 79 | 1012.9 |
| 20260503034537 | 60 | 45 | 0.0 | 0.0 | 0.00 | 0.00 | 0.00 | 76 | 1012.6 |
| 20260503033031 | 62 | 45 | 0.0 | 2.6 | 0.00 | 0.00 | 0.00 | 73 | 1012.3 |
| 20260503031607 | 64 | 45 | 1.7 | 4.3 | 0.00 | 0.00 | 0.00 | 71 | 1012.0 |
| 20260503030032 | 65 | 45 | 1.7 | 3.5 | 0.00 | 0.00 | 0.00 | 71 | 1011.9 |
| 20260503023036 | 67 | 45 | 1.7 | 3.5 | 0.00 | 0.00 | 0.00 | 67 | 1011.7 |
| 20260503020038 | 70 | 22 | 2.6 | 5.2 | 0.00 | 0.00 | 0.00 | 64 | 1011.6 |
| 20260503014534 | 71 | 356 | 1.7 | 4.3 | 0.00 | 0.00 | 0.00 | 63 | 1011.7 |
| 20260503013143 | 72 | 337 | 1.7 | 3.5 | 0.00 | 0.00 | 0.00 | 60 | 1011.7 |
| 20260503011545 | 73 | 352 | 2.6 | 4.3 | 0.00 | 0.00 | 0.00 | 57 | 1011.8 |
| 20260503004530 | 75 | 22 | 0.9 | 2.6 | 0.00 | 0.00 | 0.00 | 54 | 1012.0 |
| 20260503001608 | 76 | 22 | 2.6 | 4.3 | 0.00 | 0.00 | 0.00 | 50 | 1012.0 |
| 20260503000031 | 78 | 24 | 3.5 | 6.1 | 0.00 | 0.00 | 0.00 | 48 | 1012.2 |
| 20260502234652 | 79 | 28 | 1.7 | 5.2 | 0.00 | 0.00 | 0.00 | 48 | 1012.4 |
| 20260502230036 | 79 | 357 | 2.6 | 5.2 | 0.00 | 0.00 | 0.00 | 47 | 1012.8 |
| 20260502224532 | 79 | 332 | 3.5 | 6.1 | 0.00 | 0.00 | 0.00 | 48 | 1013.1 |
| 20260502221609 | 78 | 19 | 3.5 | 7.0 | 0.00 | 0.00 | 0.00 | 51 | 1013.6 |
| 20260502214643 | 76 | 350 | 0.9 | 4.3 | 0.00 | 0.00 | 0.00 | 54 | 1013.8 |
| 20260502213031 | 73 | 5 | 1.7 | 4.3 | 0.00 | 0.00 | 0.00 | 57 | 1013.9 |
| 20260502210030 | 73 | 15 | 0.9 | 3.5 | 0.00 | 0.00 | 0.00 | 58 | 1014.2 |
| 20260502204528 | 72 | 47 | 1.7 | 5.2 | 0.00 | 0.00 | 0.00 | 59 | 1014.3 |
| 20260502201535 | 69 | 120 | 2.6 | 7.0 | 0.00 | 0.00 | 0.00 | 66 | 1014.4 |
| 20260502200029 | 64 | 236 | 2.6 | 6.1 | 0.00 | 0.00 | 0.00 | 71 | 1014.3 |
| 20260502194535 | 61 | 336 | 3.5 | 6.1 | 0.00 | 0.00 | 0.00 | 70 | 1014.2 |
| 20260502193030 | 63 | 345 | 3.5 | 7.0 | 0.00 | 0.00 | 0.00 | 69 | 1014.9 |
| 20260502191639 | 63 | 335 | 2.6 | 5.2 | 0.00 | 0.00 | 0.00 | 70 | 1015.3 |
| 20260502190107 | 63 | 318 | 2.6 | 6.1 | 0.00 | 0.00 | 0.00 | 70 | 1015.6 |